This is the latest recevied weather packets stored in our database for station/object NL3D. If no packets are shown the sender has not sent any weather packets the latest 1 day(s).
| Time | Temp. | Humidity | Pressure | Rain* | Wind** | Luminosity | Snow |
|---|---|---|---|---|---|---|---|
| 1778054810 | 6.11° C | 56% | 1009.7 hPa | 0 mm | - | 0 W/m² | - |
| 1778054204 | 6.67° C | 57% | 1009.3 hPa | 0 mm | - | 0 W/m² | - |
| 1778053900 | 6.67° C | 57% | 1009.4 hPa | 0 mm | - | 0 W/m² | - |
| 1778053598 | 6.67° C | 57% | 1009.5 hPa | 0 mm | - | 0 W/m² | - |
| 1778053295 | 6.67° C | 57% | 1009.5 hPa | 0 mm | - | 0 W/m² | - |
| 1778052993 | 6.67° C | 56% | 1009.1 hPa | 0 mm | - | 0 W/m² | - |
| 1778052690 | 6.67° C | 56% | 1009.3 hPa | 0 mm | - | 0 W/m² | - |
| 1778052085 | 6.67° C | 55% | 1009.1 hPa | 0 mm | - | 0 W/m² | - |
| 1778051782 | 6.67° C | 55% | 1009.3 hPa | 0 mm | - | 0 W/m² | - |
| 1778051480 | 6.67° C | 56% | 1009.2 hPa | 0 mm | - | 0 W/m² | - |
| 1778051176 | 6.67° C | 55% | 1009.1 hPa | 0 mm | - | 0 W/m² | - |
| 1778050874 | 6.67° C | 54% | 1009.2 hPa | 0 mm | - | 0 W/m² | - |
| 1778050572 | 6.67° C | 55% | 1009 hPa | 0 mm | - | 0 W/m² | - |
| 1778049965 | 6.67° C | 56% | 1009.1 hPa | 0 mm | - | 0 W/m² | - |
| 1778049359 | 7.22° C | 55% | 1009 hPa | 0 mm | - | 1 W/m² | - |
| 1778048754 | 7.22° C | 55% | 1008.9 hPa | 0 mm | - | 2 W/m² | - |
| 1778047543 | 7.22° C | 55% | 1008.5 hPa | 0 mm | - | 5 W/m² | - |
| 1778046633 | 7.22° C | 55% | 1008.2 hPa | 0 mm | - | 10 W/m² | - |
| 1778046026 | 7.78° C | 54% | 1008.2 hPa | 0 mm | - | 14 W/m² | - |
| 1778044818 | 7.78° C | 53% | 1008.3 hPa | 0 mm | - | 23 W/m² | - |
| 1778043909 | 7.78° C | 54% | 1008 hPa | 0 mm | - | 32 W/m² | - |
| 1778042698 | 7.78° C | 53% | 1007.9 hPa | 0 mm | - | 34 W/m² | - |
| 1778042394 | 7.78° C | 53% | 1007.6 hPa | 0 mm | - | 38 W/m² | - |
| 1778042091 | 7.78° C | 52% | 1007.5 hPa | 0 mm | - | 40 W/m² | - |
| 1778041789 | 7.78° C | 53% | 1007.4 hPa | 0 mm | - | 39 W/m² | - |
* Rain latest hour (hover to see other rain measurements)
** Current wind speed in m/s (hover to see current wind gust speed)